Terminal Aerodrome Forecast
Issued by NWS

Home | Current Version | Previous Version | Graphics & Text | Print | Product List | Glossary On
Versions: 1 2 3 4 5 6 7 8 9 10 11 12 13 14
000
FTUS45 KGGW 181720
TAFOLF
TAF
KOLF 181720Z 1818/1918 09011KT P6SM FEW120
     FM191100 09005KT P6SM BKN110
     FM191200 VRB06KT P6SM VCSH BKN100
     FM191700 06007KT P6SM SCT110=

USA.gov is the U.S. government's official web portal to all federal, state and local government web resources and services.